RH
93 96 96 95 93 91 89 88 84 84 87 88 88 85 78 71 68 67 68 72 76 79 76 70 67 70 76 77 74 72 70 71 75 71 69 72 78 86 85 85 91 92 89 83 67 48 40 34 28 26 23 24 26 25 24 21 19 18 20 21 21 20 19 19 19 21 22 23 24 24 25 25 26 26 27 27 27 27 26 26 25 23 22 22 21 22 23 26 29 33 40 45 47 48 50 51 49
96 97 94 94 93 92 87 85 85 85 86 86 87 82 73 69 68 66 67 73 79 81 78 71 70 74 77 76 74 70 68 70 71 67 63 65 76 85 82 80 87 88 86 75 52 36 33 29 25 24 24 24 24 22 20 18 18 19 20 19 19 18 18 19 21 22 23 25 26 26 26 26 26 27 27 28 29 29 28 27 27 26 25 23 22 23 23 25 27 30 35 36 38 42 45 46 49
90 95 94 92 89 89 86 84 84 83 82 82 81 77 73 72 69 67 69 75 80 79 78 76 75 79 79 77 74 70 67 66 64 61 57 57 68 80 82 78 79 78 75 64 44 33 31 29 28 27 26 24 22 20 19 18 18 18 18 18 18 19 20 22 23 24 26 27 27 26 26 26 26 27 28 30 31 31 31 30 30 29 28 27 25 24 23 24 25 28 33 34 35 36 40 42 44
89 94 94 92 87 87 90 88 85 79 76 76 75 75 74 73 71 70 72 76 79 77 77 77 77 80 81 77 72 70 67 63 60 57 53 53 59 67 76 76 74 69 59 50 39 32 31 30 31 29 27 22 20 19 18 18 17 18 18 19 20 20 22 23 25 27 28 27 26 26 26 26 27 28 29 31 32 33 33 33 33 32 31 31 30 29 28 27 26 26 30 34 35 34 37 40 43
92 93 91 89 86 85 91 90 86 79 75 73 71 71 69 68 70 74 77 80 80 79 78 78 79 80 79 77 73 72 68 62 59 55 51 51 54 57 63 70 71 59 43 37 31 28 28 29 29 27 23 20 19 18 17 17 17 17 18 20 20 21 23 24 27 28 28 26 26 26 27 27 26 27 28 30 34 37 37 36 35 34 34 34 35 35 35 33 32 31 30 30 34 35 38 38 40
92 91 89 88 86 84 88 86 82 79 73 70 69 66 62 61 63 67 72 76 80 81 82 81 83 83 82 84 81 78 74 67 61 56 51 46 49 51 51 58 58 45 34 31 28 27 27 27 25 23 21 20 19 17 16 16 16 17 18 19 20 22 23 25 28 28 26 25 25 27 26 25 25 26 28 34 43 46 45 47 49 51 52 52 51 47 44 42 39 38 35 30 31 33 36 38 37
89 86 84 85 86 82 82 83 83 83 76 70 69 65 62 60 58 58 59 64 71 76 83 84 86 84 82 84 83 79 73 67 60 56 52 40 39 43 42 43 42 34 30 29 28 27 25 23 22 21 21 21 19 16 14 14 15 16 17 18 19 21 23 25 27 26 24 23 24 25 24 24 25 27 32 42 51 51 51 56 61 63 64 65 65 61 57 54 47 41 40 34 32 33 33 35 36
82 78 77 80 82 77 78 82 84 86 81 73 67 63 65 65 61 57 53 55 60 64 69 75 81 83 80 79 80 74 67 62 57 54 50 37 31 34 34 32 30 29 29 26 25 24 23 22 21 22 22 20 17 15 13 13 14 15 17 18 20 22 24 25 25 24 22 21 22 23 22 23 26 29 37 47 52 51 52 54 54 54 57 63 68 67 65 65 58 46 42 42 41 41 39 37 36
77 77 76 75 73 73 72 70 78 88 84 77 71 67 67 63 62 59 56 53 52 54 55 60 69 78 80 76 79 74 66 61 53 50 45 34 29 29 29 27 25 25 25 24 24 23 23 23 22 23 22 19 15 12 11 12 14 16 19 21 22 24 26 26 24 22 20 20 20 21 23 27 31 36 42 46 47 46 45 43 43 45 53 63 68 69 69 69 63 50 43 46 49 52 55 54 49
78 77 75 70 66 69 62 47 56 83 88 83 79 71 65 58 56 58 57 54 51 51 51 57 61 72 80 71 77 76 65 61 52 48 42 32 27 24 25 25 22 21 23 24 26 27 25 23 24 24 21 16 13 11 11 13 16 19 21 23 25 26 28 27 25 22 21 21 22 26 30 33 36 37 38 38 37 36 35 36 38 42 49 59 66 68 69 67 62 54 51 54 59 63 67 68 65
76 75 74 71 67 65 61 45 36 57 72 78 79 63 53 47 44 48 51 49 48 49 49 54 55 66 75 64 70 73 64 61 51 44 38 30 25 20 21 22 23 23 23 23 24 24 22 22 25 25 19 13 11 10 11 15 20 23 25 26 28 29 30 29 27 25 24 27 30 33 32 29 28 28 28 29 30 31 34 36 39 42 45 51 58 63 65 65 62 59 59 60 60 62 62 63 63
74 75 76 74 71 63 65 56 31 32 40 51 65 49 33 33 35 41 45 41 40 42 42 49 53 58 62 57 65 69 64 62 52 43 37 31 24 19 22 23 24 24 23 21 18 16 18 22 25 23 15 10 10 11 15 20 24 27 28 30 32 33 32 32 32 31 32 34 32 26 21 18 18 19 20 22 24 27 30 34 38 41 43 46 49 52 52 53 53 54 55 56 57 58 60 62 63
75 77 79 77 74 62 57 53 36 31 26 28 42 33 29 40 45 44 42 41 41 41 39 44 50 51 51 50 56 61 63 64 54 43 38 32 24 22 23 24 23 22 21 18 14 12 18 24 23 17 11 10 11 14 20 25 27 29 31 32 34 34 34 35 36 36 34 29 20 13 10 10 10 10 11 13 15 19 25 31 36 39 39 42 44 46 47 49 53 58 61 62 61 58 58 60 64
75 76 78 77 75 65 56 58 54 45 30 23 27 24 34 49 51 46 39 43 49 47 44 45 49 51 49 49 49 51 58 62 54 39 35 32 27 27 24 23 23 22 21 16 11 12 19 23 19 12 10 12 14 19 24 26 29 31 34 34 34 34 34 35 34 34 27 16 9 7 6 6 5 6 7 7 8 12 16 21 23 23 22 23 27 33 38 43 46 46 46 46 46 44 45 46 48
73 71 73 73 76 76 70 72 71 59 38 24 19 18 29 40 45 42 32 37 50 52 49 48 53 55 49 49 49 51 57 57 49 35 32 32 29 28 24 24 25 25 22 13 12 15 18 18 13 12 13 16 18 22 24 26 30 34 35 34 33 32 32 32 31 26 15 7 5 6 5 5 6 6 6 5 5 6 6 8 8 7 7 8 11 16 19 20 19 16 15 17 20 23 25 25 25
73 67 71 71 76 81 80 84 81 70 53 36 24 15 17 24 30 30 27 34 45 52 54 49 50 55 49 47 48 54 59 52 44 35 33 34 31 27 25 27 27 27 22 12 14 16 15 14 12 14 16 19 21 22 23 27 33 35 35 33 31 30 30 29 23 14 6 4 5 5 6 6 6 5 5 5 5 5 5 5 5 5 5 5 6 6 7 7 6 5 6 6 7 8 9 9 8
75 70 72 73 80 83 86 90 82 72 62 54 41 22 12 13 16 20 26 40 51 58 61 51 47 53 53 51 50 55 59 51 44 38 34 34 32 30 29 29 29 28 20 12 16 16 13 13 13 16 18 20 20 20 23 29 34 35 34 31 29 29 27 21 12 5 4 5 5 6 6 5 5 5 5 5 5 5 5 6 5 6 6 6 6 6 6 6 7 6 7 7 6 6 6 6 5
77 75 77 82 87 85 91 89 75 70 64 60 51 33 22 14 12 13 16 30 49 57 56 51 49 55 57 57 54 54 56 52 46 40 35 33 32 32 32 31 30 28 19 13 17 15 13 14 15 18 19 19 19 20 24 30 33 34 33 30 29 25 19 11 5 4 5 6 6 6 5 4 5 4 5 5 5 6 5 6 6 6 6 6 7 7 8 8 8 8 8 8 9 8 7 7 7
82 81 83 86 84 80 88 83 70 70 65 61 55 41 33 23 13 12 11 16 29 34 40 49 51 57 60 60 57 52 53 50 44 40 36 34 34 34 33 32 31 28 18 13 17 15 14 14 16 18 18 18 18 20 24 28 31 33 32 30 26 18 11 6 3 5 7 7 6 5 5 5 5 5 6 6 6 6 6 6 6 6 6 6 7 7 9 11 11 9 9 9 9 9 8 8 8
87 86 81 77 81 84 82 74 69 70 66 63 57 43 35 30 21 16 13 13 18 21 30 44 50 58 60 60 62 54 52 50 43 41 39 37 36 34 34 33 31 28 16 14 18 14 13 14 16 17 16 17 18 21 23 25 28 30 30 25 17 11 7 7 6 7 8 7 6 5 5 5 5 5 6 7 6 6 6 6 6 6 6 6 6 7 7 9 9 9 8 8 8 8 8 8 8
92 89 77 72 82 88 78 69 69 67 63 59 54 46 37 32 27 23 20 16 17 19 25 35 40 51 54 54 58 55 54 53 46 42 40 38 36 33 34 33 32 28 15 15 19 13 11 14 16 16 15 17 19 21 21 23 27 29 28 19 11 9 9 10 10 9 8 7 6 5 5 5 5 6 6 6 6 6 6 6 7 7 6 7 6 6 7 6 7 7 8 8 8 8 8 8 8
94 88 78 79 82 84 78 71 71 67 62 54 43 40 36 33 30 29 27 22 20 18 23 30 32 39 42 39 42 49 56 56 50 42 37 36 34 32 31 30 29 23 13 16 18 11 11 13 14 14 14 17 19 20 21 24 28 31 28 17 9 10 12 14 12 10 8 6 6 5 6 6 6 6 6 6 6 7 7 7 8 8 8 8 8 7 6 6 6 6 7 8 7 7 7 7 7
93 89 89 90 81 81 78 69 69 66 62 55 38 28 30 38 41 37 32 23 19 16 18 26 28 30 32 29 28 35 44 50 49 38 29 27 25 26 26 25 25 17 12 18 16 10 11 12 13 13 13 16 17 18 20 23 27 30 27 16 8 10 14 15 13 11 9 6 6 6 6 6 6 6 6 7 7 8 7 8 9 10 11 11 10 9 7 6 6 6 6 6 7 7 7 7 7
90 93 99 96 83 80 76 66 65 60 57 56 38 25 31 45 49 46 40 26 18 15 15 21 25 25 25 24 23 24 30 38 40 28 19 18 16 20 20 21 23 15 13 18 13 10 11 10 12 12 12 13 13 14 16 18 21 24 23 16 9 9 12 13 12 11 8 6 6 6 7 6 7 6 7 7 7 8 9 10 11 11 12 12 12 10 8 6 6 6 6 5 6 6 6 6 7
85 89 97 96 85 79 75 66 61 55 53 52 37 27 35 46 47 46 46 34 24 22 19 22 25 23 20 22 26 26 26 28 28 21 17 16 17 21 21 22 20 12 15 16 10 11 12 11 12 12 12 12 10 11 12 12 15 19 20 17 10 7 8 9 9 9 7 6 6 6 7 7 7 7 7 8 8 10 11 11 12 13 14 13 12 10 8 7 6 5 5 5 5 5 6 6 6
79 78 86 92 85 77 74 65 58 54 52 48 36 33 40 45 43 42 48 43 34 30 24 22 23 20 17 22 33 34 29 25 21 20 20 17 18 21 21 21 15 11 15 13 10 12 12 12 12 12 13 12 10 9 9 10 12 16 19 16 11 6 5 6 7 8 6 5 6 6 7 7 7 8 8 8 10 11 14 14 14 14 15 14 13 11 8 6 6 6 5 5 5 5 5 6 6
79 71 75 85 83 79 75 65 59 54 51 47 37 39 40 41 40 38 54 61 49 37 23 17 19 17 16 25 38 41 37 31 25 25 25 19 17 18 17 16 11 12 16 11 12 14 14 17 16 15 15 13 11 9 8 9 10 13 16 14 10 7 5 6 6 7 7 6 7 7 8 8 8 9 9 10 12 15 16 16 16 16 17 17 16 15 13 9 6 5 5 5 5 5 5 5 6
80 70 70 80 83 80 75 67 62 55 52 47 41 44 37 35 43 46 63 75 65 53 37 22 20 19 19 28 40 42 38 36 31 29 26 17 14 15 13 12 9 14 16 11 14 17 19 21 20 18 16 13 10 8 8 8 9 11 13 12 9 8 7 6 7 7 8 8 9 10 10 10 10 10 12 14 16 17 17 16 16 16 16 16 16 17 16 12 8 6 5 5 5 5 5 5 5
77 70 71 80 81 79 77 69 66 62 56 47 44 48 40 41 53 56 67 75 71 72 64 43 26 19 19 26 36 39 35 37 36 29 22 13 11 12 10 9 10 15 15 10 14 19 22 22 20 17 13 11 8 7 8 8 7 8 9 11 8 7 8 7 8 8 9 10 12 14 14 12 11 12 14 16 17 17 16 14 12 12 11 11 11 12 12 11 9 7 5 5 5 5 5 5 5
75 72 73 76 74 76 78 74 70 66 59 49 46 46 42 46 56 61 69 73 74 78 77 64 39 18 15 21 29 36 34 33 33 26 18 12 11 12 9 8 10 15 14 9 14 18 22 23 20 17 12 9 7 6 8 8 7 6 7 9 7 6 7 7 8 9 10 12 15 17 18 15 11 13 14 13 14 13 11 9 9 9 9 9 8 8 8 8 9 9 8 5 5 5 5 5 5
68 69 71 69 68 76 80 76 72 67 61 51 46 44 40 47 56 64 70 74 77 78 77 73 52 21 10 17 26 34 34 28 26 23 16 12 14 14 9 9 12 16 14 9 13 17 22 24 20 18 14 9 7 6 7 8 7 6 6 8 8 7 7 9 9 10 12 14 18 21 21 17 11 12 12 10 9 7 7 8 8 8 7 7 6 5 5 6 7 8 9 8 6 4 5 6 5
56 57 64 63 65 78 80 77 75 71 65 53 44 40 40 48 57 64 69 74 79 81 78 75 63 33 9 13 24 31 33 25 21 19 15 13 15 16 10 9 13 15 14 10 12 16 20 23 21 18 14 10 8 7 6 6 7 7 7 8 8 9 9 10 10 11 14 17 20 24 22 17 12 11 9 7 6 6 8 8 7 6 5 5 4 4 4 5 5 6 8 10 9 5 4 5 5
43 42 55 60 66 79 77 77 80 73 64 53 43 39 42 52 60 64 68 74 79 82 83 79 73 50 18 11 21 30 29 21 17 13 12 14 17 17 11 9 14 14 11 10 13 16 19 21 19 16 14 12 10 9 8 6 6 6 6 7 8 8 8 9 10 13 16 18 21 25 21 15 12 10 8 6 7 7 8 7 6 6 5 5 4 5 5 6 7 6 7 9 11 8 5 4 5
31 31 43 57 67 79 80 80 81 73 65 54 43 39 46 57 63 66 68 75 80 82 86 85 82 69 40 17 17 28 27 17 15 13 11 14 17 17 12 9 13 13 9 12 17 16 19 18 13 12 13 13 11 9 9 7 6 6 5 7 6 7 7 8 10 13 16 17 19 21 17 13 12 9 8 7 7 8 8 8 7 7 6 5 6 6 7 7 7 7 7 9 11 9 5 4 4
28 30 38 54 63 70 80 81 76 72 68 56 43 41 51 61 65 67 70 76 80 82 85 87 87 83 64 36 19 23 27 17 11 14 14 13 15 15 13 10 11 13 9 12 18 15 16 13 7 8 10 11 10 9 9 8 7 7 6 6 6 6 6 8 10 12 13 12 14 15 13 12 11 9 9 8 8 9 9 8 8 8 7 7 8 8 8 7 8 8 9 9 10 8 5 4 4
29 32 35 49 57 60 69 73 70 70 67 55 46 48 55 61 65 69 73 77 79 82 84 84 87 89 78 55 30 18 21 20 8 7 12 12 13 12 11 12 11 13 11 9 15 14 12 9 3 5 6 6 8 7 8 9 8 8 7 6 5 6 6 7 9 9 9 8 8 9 9 10 10 9 9 8 9 9 8 8 8 9 9 9 9 8 7 7 7 9 10 10 9 6 5 5 4
26 30 30 42 51 53 60 66 67 67 64 57 51 49 52 58 64 69 72 76 78 80 83 83 86 93 84 61 41 23 13 18 11 4 9 11 12 11 9 12 12 14 12 9 12 12 8 5 2 3 4 4 5 5 5 5 6 6 7 6 6 6 6 6 6 6 7 6 6 7 8 9 9 8 8 7 7 7 7 9 10 11 10 9 8 8 7 6 5 6 7 7 7 5 5 5 5
20 25 25 34 43 47 56 64 66 67 61 58 55 48 51 61 64 66 69 73 78 79 83 86 84 93 91 63 47 37 18 13 15 8 8 10 11 10 9 11 14 15 14 10 10 10 7 4 4 3 3 3 3 3 3 3 3 4 4 5 5 5 6 5 5 5 6 5 6 7 7 7 7 7 6 6 6 6 8 11 11 11 9 9 11 12 10 8 6 6 6 5 5 6 6 6 6
14 20 19 22 32 40 52 62 66 68 57 53 59 50 50 63 62 61 67 71 78 79 81 85 84 91 94 70 51 45 27 14 15 11 6 9 11 9 9 10 15 16 15 12 9 8 7 4 4 3 3 4 3 3 3 3 3 3 3 3 4 4 5 6 5 5 5 5 6 6 6 6 6 6 5 6 6 7 10 12 13 11 9 13 19 18 15 14 13 12 12 12 11 11 11 10 10
7 16 14 13 25 33 45 61 64 67 57 47 57 53 47 59 57 54 65 72 76 79 79 81 82 86 89 79 58 42 30 19 16 14 5 5 9 9 9 9 13 16 15 13 9 7 7 6 5 4 3 3 3 3 3 3 3 3 3 3 3 3 3 5 5 5 5 5 6 6 6 6 6 6 5 6 6 7 12 15 15 12 12 20 26 23 19 19 20 20 20 19 19 19 18 17 17
3 10 9 8 23 28 41 64 63 60 54 41 50 52 44 53 53 49 62 70 71 72 74 76 79 82 82 81 68 43 31 24 16 16 10 2 5 8 9 8 10 13 14 13 11 9 8 7 6 5 4 3 3 3 3 3 3 3 3 3 3 3 3 4 4 5 5 6 6 6 6 6 6 5 5 6 6 7 13 18 18 16 17 24 27 24 22 22 23 24 23 22 23 24 25 27 30
2 5 5 6 21 29 40 65 68 60 52 41 46 46 37 46 49 48 57 61 64 69 72 74 77 80 78 80 77 49 31 26 16 14 15 7 3 4 7 7 7 10 11 11 11 10 8 6 5 4 3 3 3 3 3 3 3 3 3 3 3 3 3 4 4 5 5 5 6 6 6 6 5 5 5 6 6 7 14 20 22 21 22 24 24 24 24 23 24 23 21 21 22 26 31 39 45
2 2 5 6 17 31 39 57 68 62 57 53 49 37 30 39 43 46 52 53 61 68 69 72 72 76 78 80 80 58 34 28 22 14 13 12 6 3 4 4 5 6 7 8 7 6 5 4 3 3 3 3 3 3 3 3 3 3 3 3 3 3 3 3 4 4 5 5 6 6 6 6 5 5 5 6 6 7 14 21 24 25 25 24 22 23 22 22 21 19 18 20 24 31 40 49 53
3 2 6 5 12 28 38 49 58 54 57 59 51 37 25 26 35 45 48 48 56 61 62 67 68 71 79 81 81 68 42 31 28 19 13 13 9 4 3 2 3 4 4 4 3 3 3 3 3 3 2 2 2 2 2 2 2 3 3 3 3 3 3 3 3 4 4 5 5 6 6 6 6 5 5 7 6 6 12 20 26 27 26 24 21 19 19 19 19 18 21 27 35 45 52 56 54
3 3 5 5 9 22 37 45 47 50 55 48 43 43 25 12 26 43 45 45 49 53 56 62 65 69 78 82 82 74 55 37 31 23 15 14 12 7 5 3 2 2 2 2 2 2 2 2 2 2 2 2 2 3 2 2 3 2 2 3 3 3 3 3 3 3 4 4 5 5 6 5 5 5 5 6 6 6 10 19 27 27 26 23 19 17 19 20 20 24 33 41 50 58 60 60 56
3 4 4 6 7 17 33 39 43 50 43 24 29 44 28 6 17 33 36 37 43 51 58 61 64 70 78 82 80 76 66 49 35 27 21 19 17 11 6 4 2 2 2 2 2 2 2 2 2 2 2 2 2 3 3 3 3 3 3 3 3 3 4 4 4 4 4 4 4 5 5 5 5 5 6 6 7 6 9 19 27 27 25 21 18 20 22 23 27 36 46 54 62 64 62 60 53
3 4 3 5 5 13 28 34 41 43 22 4 19 41 32 9 9 19 21 25 37 52 61 60 59 66 75 80 78 75 72 63 47 33 27 26 24 18 11 6 4 2 1 2 1 1 1 2 2 2 3 3 3 3 3 3 3 3 3 3 3 3 3 4 4 4 4 4 5 4 4 5 5 5 6 6 7 7 9 19 26 27 24 20 19 22 23 26 35 47 55 61 64 62 57 51 40
3 3 3 4 4 9 21 28 31 23 6 1 14 30 29 11 6 14 15 19 33 49 60 59 57 64 74 79 79 77 75 74 62 44 35 34 30 24 18 13 11 7 4 3 2 2 2 2 3 3 3 3 4 4 4 4 4 4 3 3 3 3 3 4 4 4 4 4 4 5 5 5 5 5 6 8 9 9 10 19 26 27 23 18 20 23 24 30 42 53 60 61 57 49 41 34 27
3 3 3 3 3 5 10 14 12 5 1 3 11 24 21 5 5 13 14 16 26 44 59 59 55 60 70 75 76 76 76 77 73 61 49 41 35 32 27 23 21 18 14 10 6 3 3 3 4 4 4 4 5 5 5 5 5 4 4 4 3 4 3 4 4 4 4 4 5 5 5 5 5 6 8 11 13 11 12 20 26 26 21 18 21 23 26 35 47 56 58 51 41 31 25 23 23
3 2 3 2 2 3 3 4 2 1 2 2 11 24 15 0 3 8 10 14 20 36 53 57 54 54 61 70 71 71 74 77 79 76 62 48 40 37 35 32 30 29 26 21 16 11 6 4 4 3 4 4 4 5 5 7 9 10 10 9 7 7 5 4 4 4 4 4 4 5 5 5 5 7 10 14 16 13 14 21 27 25 20 19 22 24 29 40 51 55 47 34 26 22 21 25 27
4 3 3 3 2 2 2 2 2 2 3 2 8 17 8 -0 3 4 8 15 16 24 36 44 50 52 56 68 71 68 69 72 76 80 75 63 51 42 39 36 33 33 33 31 28 26 21 16 11 8 7 7 7 8 7 7 11 16 20 20 19 16 11 6 5 5 4 5 4 5 5 5 5 7 11 16 18 16 16 22 27 23 19 20 22 24 33 46 52 46 31 21 21 24 26 30 32
6 4 4 3 3 3 2 3 3 2 3 3 3 6 3 1 3 2 5 12 15 17 23 29 38 46 54 63 68 68 65 66 70 75 78 77 69 55 45 39 37 36 35 33 32 32 33 31 27 23 21 20 22 22 19 13 11 14 20 25 28 27 22 16 11 7 5 4 5 5 5 5 6 7 12 18 20 19 17 22 27 22 18 20 21 26 39 50 47 33 20 19 24 28 31 33 34
7 6 5 4 3 3 3 3 3 3 3 3 2 2 2 2 2 2 2 7 11 11 16 21 27 37 47 52 60 64 62 61 64 68 72 76 77 71 58 48 43 41 39 37 36 36 36 34 31 30 30 31 35 35 32 26 20 17 19 23 27 30 30 27 20 14 9 5 5 6 6 6 6 7 12 18 23 22 19 22 26 22 18 20 22 32 46 49 38 23 18 23 29 33 34 35 36
9 8 7 6 4 4 4 3 3 3 3 3 2 2 2 2 2 3 2 4 7 7 9 12 18 26 32 37 48 57 58 56 55 62 69 71 73 74 69 57 48 48 50 47 44 43 41 35 30 32 35 38 40 39 35 31 27 23 22 23 26 30 33 33 29 24 18 11 6 5 6 7 7 9 13 19 24 25 21 22 26 22 18 21 27 39 49 43 29 20 22 29 34 36 37 38 39
10 9 8 7 6 5 4 4 3 3 3 3 3 2 3 3 2 3 3 3 5 6 6 7 12 17 19 23 32 40 44 44 46 56 66 69 69 71 69 61 52 50 53 53 51 48 43 37 33 35 40 42 40 36 32 27 22 20 19 19 21 26 32 35 35 31 27 20 11 6 6 7 8 11 15 19 24 27 24 22 24 22 19 23 34 44 45 35 23 22 29 36 40 42 42 42 41
11 10 9 8 7 6 5 5 4 4 4 3 3 3 2 3 3 2 3 2 3 4 5 5 7 10 13 16 22 27 27 32 44 58 65 68 69 70 68 62 55 51 54 55 53 50 46 40 37 39 42 42 38 33 29 25 22 20 17 15 16 21 28 35 38 37 34 28 20 13 9 7 9 13 18 22 25 28 27 23 22 22 20 27 41 44 37 27 22 26 35 44 48 48 45 44 43
13 12 11 10 9 8 7 6 5 5 5 4 4 4 3 3 3 3 3 3 3 3 4 4 4 7 10 11 15 21 23 34 53 64 67 69 70 71 70 64 57 53 54 55 53 51 49 43 40 42 43 44 41 34 31 30 28 26 22 16 15 17 22 30 36 38 38 34 29 23 17 12 12 16 22 25 25 28 29 24 22 21 20 31 43 39 29 24 25 31 41 49 51 47 44 43 41
15 14 13 11 10 9 8 8 7 6 6 5 5 4 4 4 3 3 3 3 3 3 3 4 4 5 6 7 12 15 20 41 62 65 65 70 72 72 71 67 62 56 54 55 53 52 49 44 44 45 46 48 45 37 36 37 35 31 25 17 13 14 17 22 29 34 37 37 34 32 28 22 18 20 28 29 25 27 30 26 23 20 20 33 41 33 25 24 28 36 45 48 46 43 41 39 35
Wind_Speed
9 10 10 10 10 10 10 10 11 10 10 8 8 9 9 9 9 9 9 8 8 7 7 8 10 10 10 12 14 15 16 16 15 14 15 15 13 12 12 15 15 13 11 10 7 7 9 8 9 10 10 10 10 10 9 9 8 8 8 7 8 7 8 8 8 8 8 8 7 7 6 6 7 7 7 7 7 8 8 8 7 7 7 7 6 6 7 8 7 7 9 10 9 9 8 7 6
9 9 9 9 9 10 10 10 11 10 10 9 9 9 9 8 9 10 10 9 10 9 8 8 10 11 12 14 15 15 15 15 14 13 13 14 13 11 10 12 13 11 10 8 7 8 9 9 9 9 9 9 9 9 8 8 8 7 7 7 7 8 8 8 8 8 8 7 6 6 6 6 7 7 8 8 8 8 8 7 7 6 6 6 6 6 6 7 7 6 8 9 8 7 6 6 6
7 7 9 9 9 9 10 11 11 11 11 10 10 9 9 9 9 10 10 11 11 10 10 9 10 12 13 15 14 13 13 12 12 11 12 13 14 12 9 9 10 9 8 7 8 8 9 9 8 7 7 8 8 7 7 7 7 7 6 7 8 8 8 8 8 7 7 6 5 6 6 7 8 9 9 9 9 8 8 7 6 6 5 5 5 5 6 7 6 6 8 8 7 6 6 6 6
7 6 9 10 10 9 9 10 10 11 11 11 10 10 10 10 9 10 11 11 11 11 11 11 11 13 14 14 13 11 10 11 10 9 10 11 12 12 11 9 8 7 7 8 8 8 8 8 8 7 7 7 7 6 6 6 6 6 6 7 8 8 8 7 7 6 6 5 5 7 7 8 9 9 9 9 8 8 7 6 5 5 4 4 4 4 5 6 6 6 7 7 6 6 6 6 5
8 7 8 10 10 10 10 10 9 11 12 11 11 11 11 11 10 10 11 11 11 11 12 13 13 14 14 12 10 9 8 8 8 8 9 10 11 11 12 9 8 7 7 8 8 8 8 8 8 7 7 7 6 5 5 5 6 6 7 8 8 8 7 7 6 6 5 5 7 7 8 9 9 9 9 8 8 7 7 6 5 4 3 3 3 3 5 5 5 5 6 6 6 6 6 5 5
7 7 6 6 7 7 9 9 9 10 11 12 11 10 9 10 11 10 10 10 10 12 13 13 14 13 13 11 8 6 5 4 4 6 8 9 10 10 11 11 9 8 7 7 7 7 7 7 7 7 7 5 4 4 4 5 6 6 7 8 8 7 6 6 6 5 5 6 7 8 8 8 8 8 8 8 8 8 7 7 6 5 5 4 3 3 4 4 4 5 5 6 6 6 6 5 4
6 5 4 3 3 5 8 8 8 9 9 10 10 8 8 8 10 10 10 10 9 11 12 12 12 11 11 11 8 6 5 4 3 5 6 8 10 10 9 11 10 9 8 6 6 5 6 6 6 6 5 4 4 4 4 5 6 7 7 7 7 6 6 6 6 6 6 7 7 7 7 7 8 8 8 9 8 7 7 7 7 7 6 6 5 4 4 4 4 4 5 6 6 6 5 5 4
7 6 4 4 4 5 7 8 8 8 7 7 7 7 7 6 7 8 9 10 8 8 9 9 9 8 8 10 9 7 7 5 2 3 5 6 9 9 8 9 10 9 7 6 5 5 5 5 5 5 4 4 4 4 5 6 7 7 7 7 7 6 6 6 6 6 7 7 7 7 7 7 8 8 8 8 7 7 7 7 7 8 8 7 6 6 6 5 5 4 5 6 7 7 6 5 4
7 6 5 5 5 6 8 8 7 8 8 6 6 7 7 6 6 6 8 9 9 8 8 7 8 7 5 8 9 7 7 6 3 3 4 5 7 9 7 7 8 8 7 5 5 4 4 3 4 4 4 4 4 5 5 7 7 7 7 7 7 7 7 6 7 7 7 8 8 8 7 8 8 8 8 7 6 6 7 8 9 9 9 9 9 8 8 8 7 6 6 7 8 8 7 6 5
7 7 6 6 6 7 8 7 7 9 9 7 7 6 7 7 6 6 7 9 10 9 8 7 7 8 4 6 9 7 7 7 5 3 4 4 6 8 7 6 6 5 4 4 3 3 3 3 3 4 4 4 5 5 6 7 7 6 7 7 7 7 6 7 7 8 8 9 9 9 9 9 9 8 8 7 7 7 8 9 10 11 12 12 12 12 12 11 10 9 8 8 9 8 8 7 6
8 7 7 6 5 6 6 6 6 8 9 8 7 6 6 6 7 7 8 9 10 9 8 7 6 8 4 5 9 8 8 8 5 3 4 4 5 6 7 6 5 3 1 2 2 2 3 3 4 4 4 5 5 6 7 7 6 6 6 7 7 7 7 7 8 9 10 10 11 10 10 10 10 10 9 9 9 10 11 12 13 14 14 15 15 15 15 14 13 12 11 10 9 9 8 7 6
8 7 7 6 5 5 4 4 6 7 8 9 9 7 6 5 7 8 8 9 10 9 7 6 5 6 5 5 8 8 9 9 5 3 4 4 4 5 5 4 4 2 1 2 2 2 3 4 5 4 4 5 6 7 7 6 5 5 6 6 7 7 8 9 10 11 11 12 12 11 12 13 13 12 12 13 13 13 14 15 15 16 17 17 17 17 16 16 15 14 13 12 11 11 11 10 9
7 7 8 7 7 7 6 6 5 4 6 8 10 9 6 5 6 7 8 9 10 9 8 6 5 5 4 5 6 7 9 9 7 4 4 4 5 4 3 3 3 2 0 2 2 2 4 5 5 5 6 6 7 7 6 6 5 5 6 7 8 8 9 10 12 12 13 13 13 14 15 15 15 15 15 15 15 16 17 18 18 19 20 20 20 19 18 17 17 16 16 16 15 15 14 14 13
7 7 7 7 7 9 9 8 5 1 2 5 8 7 6 5 6 6 6 9 10 9 8 7 5 5 4 4 3 4 8 10 9 6 4 4 4 3 3 3 1 1 1 2 1 3 5 5 5 6 7 7 7 7 6 5 5 6 7 8 9 10 10 12 12 13 13 14 15 17 17 17 16 16 16 16 17 18 19 20 21 22 23 23 22 20 20 19 19 19 19 19 18 17 17 16 15
7 7 6 6 7 8 9 9 7 3 1 2 4 5 5 6 6 5 5 7 8 7 7 7 6 5 5 5 3 2 6 9 10 7 5 4 4 4 3 2 1 1 2 1 2 4 5 5 6 6 7 7 7 6 6 6 6 7 8 9 10 11 11 12 13 14 15 16 18 18 18 17 17 17 17 17 18 19 21 22 23 23 24 23 22 21 21 21 21 20 20 20 20 19 18 18 17
7 7 6 5 7 7 8 9 7 5 3 3 4 4 5 6 5 4 4 4 5 5 5 5 6 6 5 5 4 3 5 7 9 8 6 5 5 5 4 3 1 1 2 2 4 4 5 5 6 7 8 8 7 7 6 7 8 9 10 10 11 11 12 13 14 15 17 18 19 19 18 18 18 18 18 19 19 20 21 22 22 23 23 23 22 21 21 20 20 20 20 20 20 20 19 19 18
7 6 6 6 6 6 8 8 6 5 5 7 6 3 4 4 5 6 5 3 3 4 4 4 4 6 6 6 5 4 4 6 8 9 8 7 7 6 5 4 2 2 2 3 5 5 5 6 6 8 8 8 8 8 8 8 9 10 11 11 11 12 13 14 15 17 18 19 19 19 19 19 19 19 19 19 19 20 21 21 21 21 21 21 20 20 19 18 18 18 18 19 19 19 19 18 18
8 6 4 5 6 5 7 7 4 5 7 9 7 4 4 4 5 7 5 3 2 2 3 2 2 5 7 7 5 5 5 5 7 8 8 8 8 7 5 4 4 3 3 4 6 6 6 7 7 8 9 9 9 9 9 9 10 11 11 11 12 13 14 16 17 18 19 19 20 20 20 20 20 19 19 18 18 18 19 19 19 19 19 19 18 18 17 16 16 16 16 16 17 17 17 17 17
9 6 4 5 6 4 5 5 5 7 9 10 7 5 6 5 5 6 6 5 3 1 1 2 3 4 6 6 6 6 5 5 6 7 7 7 7 6 5 5 5 5 4 5 7 7 7 7 9 10 10 10 10 10 10 10 11 11 12 12 13 14 15 17 18 18 19 20 20 21 21 20 20 19 18 17 17 17 17 18 17 18 18 17 17 17 16 15 15 15 15 15 15 15 15 15 15
10 7 7 7 6 4 4 5 7 10 11 10 8 7 8 7 5 5 5 5 5 3 1 1 3 4 4 6 6 7 7 6 7 7 6 6 6 6 5 5 5 5 5 7 8 8 9 9 10 11 11 11 10 10 10 11 12 12 13 13 14 15 16 18 18 18 19 20 20 21 20 20 19 18 17 16 16 16 16 17 16 16 16 16 16 16 16 15 15 14 14 14 14 14 14 14 14
12 9 10 8 6 5 5 5 7 9 10 10 9 10 10 9 6 5 5 5 5 4 2 1 4 4 4 5 6 6 8 8 8 8 7 7 6 6 6 5 5 5 6 8 9 9 10 11 11 12 12 11 10 10 11 12 12 13 13 13 14 16 17 18 18 18 19 20 20 20 19 19 18 17 16 15 15 15 16 16 16 15 15 15 15 15 15 15 15 15 14 13 13 13 13 13 13
13 11 9 8 7 6 6 5 6 7 8 8 9 12 13 11 9 8 6 5 4 2 1 1 2 3 4 5 6 7 8 9 9 9 9 8 8 7 7 7 7 6 8 10 10 10 11 12 13 13 13 12 11 11 11 12 13 13 13 13 15 17 18 18 18 18 19 19 18 18 18 17 16 16 15 15 15 14 14 15 15 14 14 14 15 15 15 15 15 14 14 13 13 13 12 13 13
14 12 10 10 10 8 7 7 6 7 7 8 10 13 13 14 13 11 9 6 5 2 1 1 0 1 3 5 5 7 8 9 9 9 9 9 9 8 8 8 6 7 9 11 11 11 12 13 14 14 13 13 12 12 12 13 13 13 13 14 15 16 17 17 18 18 18 17 17 16 16 15 15 14 15 14 14 14 13 14 14 14 14 14 14 14 15 14 14 14 14 14 13 13 13 13 13
16 14 13 14 13 11 11 9 8 7 6 9 12 14 15 16 15 12 10 7 6 4 2 1 1 1 3 4 5 6 7 8 8 7 8 7 6 6 6 6 5 7 11 12 12 13 13 14 15 15 14 13 12 12 13 13 13 13 13 13 15 16 17 17 17 17 17 16 16 15 14 14 13 13 13 14 14 13 13 13 13 13 13 13 14 14 14 14 14 14 14 14 13 13 13 13 14
18 16 16 17 16 15 14 10 8 7 5 9 13 14 15 16 14 13 11 8 8 8 6 5 3 3 4 4 4 5 5 7 7 7 6 5 5 5 5 5 7 10 13 13 14 14 14 14 15 15 15 13 12 12 13 13 13 13 13 13 14 16 17 17 17 16 16 15 14 14 13 12 12 12 12 12 13 12 12 12 12 12 12 13 13 13 13 14 13 13 13 12 12 13 13 13 13
20 20 19 19 18 16 14 9 5 5 4 8 12 13 14 14 14 15 13 10 9 8 7 6 6 6 6 4 5 5 5 6 7 7 7 6 6 7 8 8 9 12 14 14 15 15 15 15 15 15 15 14 13 13 12 13 13 13 13 13 14 16 16 16 16 15 15 14 13 13 12 12 12 11 11 11 11 11 11 11 11 11 11 12 12 12 13 13 13 12 12 11 11 12 13 12 12
23 22 20 19 17 15 12 8 4 2 1 4 9 11 12 13 14 16 15 12 10 9 7 6 6 7 7 5 6 6 6 5 5 6 6 7 8 9 10 9 11 13 14 15 16 16 16 16 15 15 15 14 14 13 13 13 13 14 14 14 14 15 16 15 15 14 14 13 13 12 12 12 11 11 11 11 10 10 10 10 10 10 10 10 10 10 11 12 11 11 11 10 10 10 11 11 11
24 21 19 18 16 13 12 9 7 5 5 3 6 8 10 13 14 16 17 13 11 11 9 7 6 6 6 5 6 6 6 6 5 5 7 9 11 11 12 12 14 16 16 16 17 17 16 16 15 15 15 14 14 14 14 14 14 14 14 14 15 15 15 15 14 14 13 13 12 12 11 11 11 11 10 10 10 10 10 10 10 9 9 8 8 9 9 9 9 9 9 9 9 9 10 10 10
25 21 19 18 16 13 12 11 10 10 9 6 2 6 10 13 13 16 18 16 13 13 12 10 8 7 6 5 6 6 6 7 7 8 9 9 10 11 12 14 17 18 18 18 18 17 16 15 15 15 14 14 14 15 15 15 15 15 15 14 14 14 14 14 13 12 12 11 11 11 11 11 10 10 10 10 10 10 10 10 9 9 8 7 7 8 8 7 7 8 8 8 8 9 9 9 8
26 23 20 19 16 13 12 13 11 11 11 9 2 8 12 13 14 17 19 17 15 14 14 13 11 8 7 5 5 7 7 8 9 8 9 9 9 10 12 15 18 18 17 17 18 17 16 14 14 14 14 14 14 15 15 15 15 15 15 14 13 13 13 12 12 11 11 10 9 9 10 10 10 10 10 10 10 10 9 9 8 8 7 7 8 8 8 7 7 7 7 7 7 8 7 7 6
27 23 21 19 15 12 13 13 11 12 14 13 5 11 14 13 15 17 18 18 16 15 15 15 14 10 8 6 5 6 7 7 7 8 9 10 10 9 11 14 17 18 17 18 18 17 16 14 13 14 14 14 14 14 15 15 15 15 15 14 13 12 12 11 11 10 9 9 8 8 8 9 9 9 9 10 10 10 9 8 7 7 7 7 8 8 8 8 8 8 7 6 6 6 5 5 4
27 23 21 18 14 14 14 13 12 15 15 12 6 15 16 14 15 15 17 18 17 15 14 15 14 12 9 7 5 5 6 4 4 7 8 9 11 10 10 13 16 17 17 17 17 16 15 14 13 13 14 14 14 14 14 14 14 14 14 13 12 12 11 10 10 9 9 8 8 7 8 9 9 9 8 9 9 9 8 7 6 5 6 7 7 8 8 8 8 8 7 6 6 4 3 3 3
25 22 21 18 16 17 16 14 15 16 15 10 10 17 18 16 15 15 16 18 17 15 14 14 14 13 10 7 6 5 4 2 5 8 9 9 11 11 11 13 16 18 17 16 16 15 15 14 14 14 14 13 13 14 14 14 14 13 13 12 11 11 10 10 9 9 8 8 8 8 8 9 9 8 8 8 8 7 6 5 4 4 6 7 7 8 8 8 8 7 6 6 5 4 4 2 1
22 19 19 19 18 19 17 16 17 18 16 12 15 19 18 17 16 15 16 16 16 14 13 13 14 14 12 8 6 5 4 2 5 8 10 11 12 12 12 14 16 16 16 16 15 15 14 14 14 14 14 13 13 13 13 13 13 12 12 11 11 10 10 9 9 9 8 8 8 9 9 9 8 7 7 7 6 6 4 3 3 5 6 7 7 8 8 8 7 6 4 4 3 3 4 4 2
20 19 18 21 21 19 17 18 19 19 19 16 17 18 17 17 16 16 15 15 14 13 12 12 14 15 12 8 6 6 5 3 4 6 8 11 13 13 13 15 16 15 15 15 13 13 13 13 13 14 14 13 13 13 13 12 12 12 12 11 11 10 10 9 9 8 8 9 9 10 10 9 8 7 6 5 5 4 3 4 5 6 7 7 7 7 7 7 5 4 3 2 3 3 3 4 4
20 20 20 22 23 20 18 19 20 22 22 19 18 18 17 17 16 15 14 13 13 12 11 11 12 14 13 9 6 6 6 4 3 6 7 8 12 14 15 16 16 15 14 13 12 11 12 12 13 14 13 13 13 12 13 12 12 12 12 12 11 11 10 9 9 8 9 9 9 10 10 9 8 6 5 4 3 2 4 5 7 7 7 7 7 6 6 6 4 3 2 2 2 3 3 3 4
20 21 21 22 23 22 20 20 21 24 24 20 19 20 18 17 17 15 13 13 13 12 10 8 8 10 12 9 5 5 6 4 3 4 6 7 10 13 15 17 17 15 14 12 11 10 12 13 14 14 14 13 13 13 12 12 12 12 12 12 12 11 10 10 9 9 9 9 9 10 9 9 7 5 4 3 2 2 4 6 7 7 6 6 6 6 6 5 4 3 2 2 2 3 4 4 4
23 23 22 22 25 24 22 21 20 24 25 22 20 20 18 16 16 16 15 14 12 10 9 6 4 6 9 9 5 4 6 3 2 4 6 7 9 11 13 16 16 15 13 12 12 12 12 14 14 14 14 13 13 12 12 11 11 11 11 11 11 11 10 9 9 10 10 10 9 9 8 7 6 4 2 2 2 3 5 6 7 6 5 5 5 6 6 6 6 5 5 4 5 5 5 5 5
26 26 23 23 25 26 26 23 20 24 28 25 24 22 20 18 18 19 17 15 12 11 9 6 4 4 5 9 6 3 4 2 3 5 6 8 10 11 13 15 16 16 16 15 15 13 13 13 12 12 12 12 11 11 11 10 10 10 9 9 10 10 10 9 10 11 11 10 9 8 7 6 4 2 0 1 3 4 5 6 6 5 4 5 5 5 6 7 7 7 7 7 7 7 6 6 5
28 29 27 21 22 27 28 25 23 26 29 28 28 26 23 21 20 20 18 15 14 14 13 12 9 6 2 6 7 3 2 3 4 5 6 7 9 11 12 14 16 17 17 16 15 13 12 12 12 12 11 11 10 10 9 9 9 8 8 8 8 8 10 11 11 11 11 10 8 8 6 5 3 1 1 2 4 5 5 5 5 5 4 4 5 4 5 6 7 7 7 7 7 6 6 6 6
27 31 29 21 21 26 27 26 27 30 31 28 28 29 26 23 21 20 18 16 16 16 16 16 13 7 1 3 6 4 3 3 4 5 6 6 7 10 12 15 17 17 16 15 14 13 13 13 13 13 12 10 10 9 8 8 8 8 8 7 8 8 9 10 11 10 10 8 7 6 5 4 3 2 3 4 5 5 5 4 5 5 5 5 5 4 4 5 5 6 6 7 7 7 7 8 8
27 28 26 23 25 27 28 28 28 31 31 28 28 30 27 25 23 22 20 18 18 16 16 16 15 9 4 0 5 6 4 4 4 5 6 6 7 10 11 12 13 13 14 14 14 15 16 15 14 12 11 10 9 8 7 8 8 7 7 8 7 7 8 9 10 10 10 8 7 6 5 4 4 4 4 5 6 6 5 4 4 5 5 6 5 5 4 5 5 6 7 8 9 9 10 10 11
25 23 24 27 29 28 29 30 31 33 32 30 31 31 26 26 26 23 21 20 19 19 19 18 17 14 7 3 3 7 5 5 5 5 5 6 8 9 9 8 8 10 12 13 14 15 15 15 13 11 10 10 9 8 8 8 8 8 8 8 7 7 8 8 9 10 10 9 8 7 6 5 5 5 5 6 6 7 6 5 5 5 6 7 6 5 5 5 6 7 8 9 10 11 12 12 13
16 18 26 29 29 30 31 33 35 34 34 35 34 32 28 24 24 24 23 22 22 22 22 21 20 17 11 7 3 5 7 6 6 5 5 6 8 9 9 8 8 9 11 12 12 13 13 13 12 12 11 10 9 9 9 9 9 10 9 9 9 9 9 8 8 9 9 9 9 8 8 7 7 7 6 6 7 7 7 6 6 6 7 7 7 6 5 6 7 8 9 9 10 12 13 14 15
12 20 27 28 29 32 33 36 37 35 38 38 34 34 31 21 21 25 25 24 23 22 22 23 22 18 13 10 7 2 7 7 7 6 6 6 7 9 10 10 10 11 11 10 11 11 12 12 12 12 11 10 9 9 10 11 11 11 10 10 10 10 9 9 9 9 9 10 10 9 9 9 9 8 7 7 8 8 8 7 7 7 7 8 7 5 5 6 7 8 9 10 12 13 14 14 15
15 22 27 28 31 33 36 38 36 38 41 38 33 35 34 20 19 26 25 22 20 20 22 24 23 19 16 13 10 5 4 7 6 7 7 7 7 8 10 11 11 12 12 10 11 11 11 11 11 11 11 11 10 9 10 11 12 11 10 10 11 11 10 10 11 10 10 10 10 11 11 11 10 9 8 8 9 9 8 7 7 8 8 8 6 4 5 6 7 9 10 12 13 13 14 14 14
21 25 29 32 32 35 40 39 39 43 40 33 31 37 37 24 18 25 22 16 17 20 23 25 24 21 19 16 12 8 3 5 6 7 8 9 9 8 8 9 10 11 11 11 11 11 11 11 10 10 11 11 10 10 10 10 10 10 11 11 11 10 11 11 11 12 11 11 12 12 12 11 10 9 8 8 9 10 9 8 8 8 9 8 5 4 5 6 8 10 12 13 13 14 14 14 14
27 29 32 35 35 37 42 41 43 40 29 26 30 37 39 23 12 18 17 13 17 21 23 25 24 23 21 18 14 10 5 4 7 8 8 10 10 9 7 7 9 9 10 10 11 11 11 12 11 11 11 11 11 11 11 10 9 10 11 11 11 10 10 11 13 13 12 12 12 12 12 12 11 9 9 9 9 9 9 8 8 9 9 7 5 4 5 6 8 10 12 13 13 13 14 14 15
28 31 33 35 36 38 41 41 39 30 23 23 28 35 34 16 8 11 12 12 15 19 22 24 25 25 24 22 19 15 11 6 7 9 10 10 10 9 9 9 9 9 10 11 11 12 12 13 13 13 13 12 12 12 12 11 10 10 11 12 12 11 10 12 13 13 13 13 13 13 14 14 12 10 9 9 9 9 9 9 9 10 10 7 5 4 5 6 8 10 12 12 12 13 14 15 16
27 29 31 32 33 36 37 35 32 27 25 26 27 35 32 14 7 9 10 12 13 17 21 21 22 24 24 24 21 18 16 12 9 10 12 12 11 11 11 11 11 11 12 12 12 13 13 14 14 14 14 13 13 12 12 12 12 12 12 13 13 12 11 12 13 13 13 14 14 14 15 15 13 11 10 10 9 10 9 9 10 11 10 7 5 5 5 6 8 10 11 11 12 14 15 17 18
25 27 31 33 32 33 32 31 30 28 28 29 29 34 27 14 9 8 10 14 13 16 18 18 20 21 21 23 23 21 20 18 14 12 12 12 13 14 14 15 15 14 15 15 14 14 14 14 14 14 15 14 14 13 13 13 13 14 15 15 15 14 13 14 14 14 14 14 15 15 16 16 14 13 11 11 11 11 10 10 11 12 10 8 6 5 5 6 7 9 10 12 13 15 16 17 18
27 29 32 30 27 29 33 34 34 33 34 34 31 29 22 17 16 14 14 16 15 16 17 17 19 19 19 21 23 23 21 19 17 14 12 11 13 16 17 18 18 18 18 18 17 16 14 14 15 16 16 16 15 15 14 15 15 16 16 16 16 16 16 16 16 15 15 16 17 17 17 17 15 13 12 12 13 13 11 11 12 12 10 8 7 6 5 5 7 8 10 12 13 14 15 15 16
31 33 30 23 23 29 34 35 36 38 40 37 32 29 22 20 21 16 14 16 18 18 16 16 18 18 20 21 21 21 19 17 16 14 12 10 13 17 19 19 19 20 20 20 19 17 16 16 17 17 17 16 14 14 14 15 16 17 17 18 18 18 18 18 18 18 18 18 19 19 19 18 16 14 12 13 15 15 13 13 13 13 11 9 7 6 6 5 6 8 10 11 12 13 13 14 14
36 32 25 25 30 33 35 36 36 40 42 36 30 28 24 22 20 16 14 14 17 19 17 17 17 18 19 19 19 20 18 17 15 14 14 13 14 18 20 21 20 20 21 20 20 19 19 19 18 17 16 14 14 15 15 15 15 16 17 19 20 20 20 20 20 21 21 20 20 21 21 19 17 15 14 14 15 16 15 14 14 14 12 10 8 7 6 5 6 8 9 10 11 12 12 13 14
36 30 28 33 37 35 36 37 35 37 39 32 26 25 24 19 14 12 14 13 14 18 18 18 17 18 18 16 16 17 18 19 18 17 16 15 15 16 19 22 21 19 21 21 21 21 21 20 18 17 16 15 15 15 14 14 14 15 17 19 21 22 23 23 23 24 23 21 21 22 23 21 19 17 15 15 16 17 17 16 16 15 13 11 9 8 6 5 6 7 8 8 10 11 12 14 15
35 33 35 38 37 35 37 38 35 35 35 31 26 22 16 12 12 12 12 12 14 17 18 18 18 17 17 16 15 15 16 19 20 18 16 13 12 14 18 22 22 20 20 21 22 23 22 21 19 16 16 16 15 14 13 13 14 15 17 18 21 22 23 24 24 25 24 22 23 24 24 23 21 18 16 15 16 18 18 18 18 17 14 13 11 9 7 6 6 6 6 8 10 11 13 15 17
36 37 38 37 38 38 38 39 37 35 34 31 28 19 6 4 10 13 12 12 13 15 17 19 19 19 19 17 16 15 14 18 21 18 15 13 11 12 17 21 23 22 22 23 25 24 23 22 20 18 17 16 15 14 13 14 14 14 15 17 19 21 22 24 24 25 24 23 24 24 25 24 23 20 17 17 17 18 19 19 19 18 16 14 12 10 8 6 6 6 6 8 10 12 14 17 19
39 39 38 37 38 39 40 40 37 34 33 30 29 25 11 7 10 12 14 14 12 13 15 17 18 20 20 18 17 16 15 18 21 18 15 13 10 12 16 20 24 25 24 25 25 25 24 23 20 19 18 16 15 14 14 15 14 14 13 14 16 18 20 22 23 24 24 24 24 25 26 25 23 21 19 18 18 19 19 19 20 19 17 16 13 11 9 7 6 6 7 9 11 13 15 17 20
Wind_Direction
97 105 104 104 107 106 102 101 99 98 99 97 92 90 89 90 88 85 83 83 80 82 103 124 127 125 124 119 118 118 117 114 113 114 111 110 110 115 122 122 126 135 137 130 128 122 120 127 128 127 125 122 123 126 128 126 124 126 128 122 114 102 88 81 78 76 75 75 76 79 77 75 73 72 73 72 69 65 61 60 59 62 63 61 57 59 70 80 82 79 81 79 76 73 70 70 71
101 102 98 94 102 107 104 101 101 102 102 99 96 92 89 87 89 89 88 83 75 80 98 118 125 125 127 126 124 123 121 117 117 117 115 115 112 114 123 122 128 137 139 136 132 126 127 130 128 124 120 119 121 124 125 124 128 130 126 118 105 89 80 78 75 73 72 73 76 75 72 70 68 66 64 61 59 57 57 55 55 58 59 58 52 51 61 70 76 76 77 78 78 78 72 69 67
120 104 93 86 93 104 105 104 105 103 102 101 101 98 92 90 92 92 92 84 75 79 93 109 119 122 128 128 125 124 121 119 118 120 121 122 120 121 123 121 127 138 145 144 137 135 135 133 129 124 119 119 122 124 126 129 131 128 121 109 91 81 77 76 74 72 71 73 74 70 69 67 63 60 56 55 53 53 54 55 55 56 56 57 53 51 54 58 63 67 76 79 80 84 81 77 72
129 111 99 93 94 98 100 102 103 104 103 102 102 102 99 96 96 95 93 87 79 80 89 101 111 119 127 126 124 122 121 116 112 118 122 122 127 130 129 127 130 141 150 148 144 144 142 136 132 125 119 119 124 130 134 135 130 123 111 95 83 78 76 76 75 72 74 74 70 67 64 60 57 55 54 53 50 50 51 51 52 51 52 55 58 62 62 61 57 60 74 83 87 89 89 85 79
128 121 108 98 91 91 95 97 101 107 108 105 102 104 108 105 99 94 93 90 87 88 93 99 105 115 121 117 112 112 116 116 110 120 127 126 131 137 137 136 138 144 152 152 151 149 145 139 134 126 121 123 131 141 144 137 125 113 98 87 81 79 78 79 78 79 81 75 68 63 58 55 53 53 54 51 48 48 48 49 46 43 42 46 56 67 73 73 67 63 73 84 91 93 94 93 88
138 133 120 101 87 90 97 98 105 113 117 115 111 113 115 112 105 101 101 98 98 98 99 103 107 115 117 112 103 96 103 110 109 123 132 131 135 144 142 141 145 148 155 159 156 152 147 141 134 126 123 129 142 152 146 129 113 99 90 85 83 84 86 86 87 87 82 74 68 61 56 54 52 51 50 48 48 50 49 50 51 51 47 45 51 66 78 79 77 72 76 82 81 81 82 86 88
150 143 134 119 115 115 105 101 111 121 125 123 123 126 123 118 113 112 111 109 112 113 109 110 114 122 124 119 111 101 90 84 104 121 138 141 137 146 147 144 147 150 158 164 162 157 149 142 132 125 127 138 150 152 136 118 104 94 89 89 92 93 95 95 94 88 80 74 69 63 58 55 53 49 47 47 47 48 46 50 55 56 55 55 57 67 75 74 75 72 73 76 72 67 66 70 76
147 140 131 140 159 143 117 111 121 131 135 132 134 134 132 126 120 120 118 117 123 123 118 117 121 125 130 125 115 110 98 87 88 109 145 152 138 147 152 147 147 151 161 167 167 162 151 142 130 125 131 145 152 141 126 113 102 96 97 99 101 100 98 97 93 87 81 78 75 70 63 59 56 52 50 49 47 45 42 46 55 59 63 66 68 72 74 71 73 74 70 69 69 68 66 63 65
147 139 135 148 153 133 120 119 130 140 144 145 142 139 140 138 134 133 129 128 128 124 117 115 125 122 131 135 120 114 108 97 89 98 149 158 141 147 152 148 146 149 162 174 173 165 157 147 134 130 136 146 140 128 120 110 102 101 103 103 103 101 99 97 93 89 85 82 79 75 70 65 63 61 58 54 51 48 49 55 62 69 73 75 77 77 76 75 79 83 74 65 64 65 64 60 59
155 145 142 143 128 120 121 123 138 151 156 155 150 150 155 150 147 144 139 136 127 121 114 110 122 119 136 151 126 119 114 102 95 113 152 156 142 145 148 147 141 145 166 185 183 174 169 155 143 136 138 139 127 122 117 107 103 105 105 103 102 100 99 98 95 91 87 84 83 81 77 75 73 71 69 68 67 67 70 74 77 79 80 81 81 80 79 80 83 83 75 68 67 65 64 62 63
162 151 140 132 125 126 126 127 146 161 166 169 170 173 176 165 157 151 146 138 124 114 109 108 114 118 141 157 131 132 125 107 100 133 158 157 151 148 149 147 140 146 198 222 204 191 182 165 155 145 138 132 125 122 115 108 107 107 104 103 103 103 101 98 95 92 88 87 87 86 84 83 83 83 82 83 82 83 85 87 87 85 83 82 82 81 82 84 85 85 82 78 75 72 69 65 61
165 152 135 123 119 117 125 142 160 173 175 179 186 193 196 189 171 155 142 129 117 110 105 106 113 125 147 148 138 144 133 117 115 164 184 173 166 158 156 149 145 151 270 287 259 211 185 172 165 149 137 132 128 124 117 114 113 110 107 108 107 104 100 97 94 93 91 90 90 91 92 93 93 92 91 90 90 90 91 92 90 88 86 84 84 84 85 86 86 85 83 80 78 76 72 67 61
164 149 131 113 98 92 106 124 138 175 189 186 191 197 197 189 173 154 134 118 108 104 105 107 114 124 133 136 141 149 140 131 133 173 208 195 178 171 164 149 145 141 336 306 290 209 180 179 173 151 139 137 132 125 122 121 119 117 115 114 109 104 100 97 96 95 94 94 96 99 100 100 99 98 97 95 94 92 92 91 89 88 87 87 87 86 85 84 82 80 78 77 78 77 74 71 66
163 151 134 110 89 91 104 101 85 77 202 193 188 189 184 179 169 152 132 118 111 106 107 106 109 104 99 106 114 145 150 146 145 165 202 205 191 181 168 150 138 76 0 314 264 198 181 181 173 152 143 139 134 130 131 132 128 125 121 117 110 106 101 98 98 98 98 101 104 105 104 104 103 102 100 97 95 93 91 90 88 88 88 88 88 87 85 83 81 80 79 79 79 77 74 71 67
175 166 152 116 93 99 104 88 72 61 80 178 165 164 165 166 166 153 129 116 118 117 115 113 112 104 106 107 90 142 165 158 151 158 184 202 197 187 178 164 155 19 345 293 207 194 185 177 167 151 145 140 135 135 140 139 133 128 123 118 113 109 104 102 102 103 105 107 107 107 107 107 106 104 102 99 96 93 92 90 89 88 88 89 88 87 85 84 84 83 81 81 80 78 75 71 67
197 188 174 131 103 107 101 84 78 75 73 79 87 113 134 143 147 135 110 105 122 126 121 119 118 116 117 115 108 140 177 171 158 158 176 195 196 189 190 191 220 307 318 249 200 189 178 170 162 152 145 142 139 141 144 140 135 130 126 121 116 111 107 107 108 109 110 110 109 110 110 110 108 107 104 100 97 94 92 90 89 89 89 89 89 87 85 85 84 83 82 82 81 79 77 74 69
219 204 175 134 116 113 97 81 83 89 73 55 47 74 102 108 109 99 88 88 120 127 120 120 128 131 128 121 117 139 182 188 170 168 179 192 198 198 204 216 240 273 285 221 195 181 169 163 159 153 146 145 144 144 144 139 136 133 130 124 117 112 111 112 113 113 113 112 112 113 113 112 111 109 106 101 97 94 92 90 89 88 88 87 87 85 83 82 81 81 81 81 80 79 77 75 71
228 212 179 134 129 127 98 78 84 97 70 53 38 41 62 66 79 77 76 83 107 136 130 134 159 155 143 138 139 147 176 204 193 184 187 193 203 211 220 235 246 257 256 210 189 174 165 158 155 152 148 147 146 144 144 140 138 136 131 124 118 115 115 115 116 115 115 116 117 117 117 115 114 111 106 102 97 94 92 90 89 88 87 87 85 84 81 79 77 76 75 76 76 77 76 73 71
220 208 185 150 143 154 118 93 99 91 71 65 56 48 51 51 62 59 58 66 80 118 168 173 193 186 164 156 159 154 165 209 211 200 201 202 210 224 234 244 250 253 236 201 185 171 161 155 154 153 149 149 147 145 143 140 138 137 131 125 121 119 118 118 118 118 118 119 120 119 119 117 114 111 107 103 99 95 93 90 87 86 86 86 86 85 83 79 75 72 70 69 68 69 69 68 67
207 197 193 171 156 168 147 124 118 98 87 88 79 67 57 51 56 55 48 46 52 55 59 205 218 212 194 176 173 167 167 196 214 209 210 211 216 228 237 251 256 255 226 194 185 171 158 155 155 151 149 149 147 144 142 141 139 136 132 128 125 122 122 122 121 122 123 123 122 121 120 118 115 113 110 107 102 98 95 91 86 84 82 82 82 81 80 79 76 73 69 67 66 65 65 66 65
197 196 196 179 167 171 156 138 124 104 100 106 94 79 68 59 54 47 40 37 37 35 48 209 233 229 219 193 184 187 180 191 208 209 207 207 213 219 225 238 243 241 215 191 183 173 160 156 156 151 148 147 145 143 142 141 139 137 133 131 128 126 126 125 125 125 126 125 125 124 122 119 117 116 113 109 105 100 97 94 90 86 83 80 77 75 74 73 73 72 70 66 65 65 67 67 65
198 199 191 177 183 190 169 148 134 113 100 105 102 91 81 71 60 45 34 32 38 30 65 134 238 232 233 219 199 196 192 196 205 208 207 206 208 212 217 218 219 215 200 188 179 171 162 156 155 151 148 146 144 143 143 142 140 138 136 133 130 130 130 129 129 128 128 128 127 125 122 119 118 117 114 110 105 101 97 95 94 90 85 81 77 74 71 68 68 69 70 68 65 63 64 65 65
198 196 190 186 195 204 186 166 159 142 107 95 101 103 95 81 68 54 39 37 56 76 135 131 244 249 255 256 231 205 199 201 206 210 209 208 207 209 214 213 214 206 191 183 175 169 163 158 155 152 149 147 146 147 145 143 141 142 140 136 133 133 133 132 132 131 131 130 128 124 121 119 119 117 114 110 106 101 96 92 89 87 82 77 73 70 67 65 63 63 63 64 63 60 58 60 62
200 196 194 191 196 206 199 189 180 164 123 100 105 110 103 90 80 66 48 36 43 43 40 50 334 313 276 270 253 222 206 200 207 216 213 212 214 212 208 202 206 202 189 180 172 168 164 162 158 154 152 149 149 148 146 144 144 144 142 138 135 135 135 135 135 134 133 131 128 123 120 119 117 115 112 108 105 100 94 88 83 79 75 71 68 66 64 62 60 58 57 57 60 59 54 52 54
205 203 197 192 199 211 211 201 183 170 138 114 115 116 109 99 94 81 62 40 32 25 14 0 334 308 278 249 234 228 213 199 198 208 211 207 210 207 196 194 199 193 186 178 170 166 163 163 161 158 155 153 153 150 148 147 146 146 143 140 139 137 137 136 136 135 134 131 127 123 120 119 117 114 110 107 103 99 92 85 79 74 70 67 65 65 63 60 58 56 55 53 55 59 57 50 47
208 209 204 201 208 218 221 214 187 164 143 125 125 122 116 109 104 93 75 55 42 33 23 0 331 310 288 239 212 214 212 207 202 202 202 195 193 191 185 187 191 187 183 178 169 165 162 163 163 161 159 157 155 154 152 150 149 148 146 144 142 140 138 137 137 137 135 131 127 124 122 121 119 115 109 105 101 97 90 84 79 72 67 64 63 64 63 60 58 57 56 54 50 55 59 55 49
212 216 210 210 218 225 229 238 244 195 175 146 133 126 123 115 107 100 83 63 49 41 39 25 352 326 301 256 219 216 212 211 210 206 200 193 190 185 182 180 180 182 181 177 171 166 163 162 163 162 161 160 157 156 155 153 152 149 148 147 145 142 141 140 140 138 136 133 129 126 124 122 119 115 111 107 103 97 91 86 81 74 68 65 63 63 61 57 55 55 56 58 54 52 57 56 52
217 221 216 214 223 232 239 253 271 286 290 243 140 125 124 115 106 100 87 69 51 37 36 37 18 349 316 267 239 233 224 214 204 205 202 195 188 181 178 174 174 180 180 177 174 170 167 165 164 164 162 160 156 154 155 155 153 151 150 148 146 145 144 143 142 140 137 134 130 127 125 122 119 116 113 110 105 99 93 88 83 78 74 70 67 63 59 54 49 48 49 55 57 55 54 54 52
222 224 220 217 222 230 242 255 273 292 292 277 155 128 127 116 107 99 88 77 60 40 29 27 22 6 338 281 254 250 239 223 210 204 203 194 187 182 175 171 173 178 179 178 177 174 171 168 166 164 162 159 155 153 154 155 154 152 151 150 149 148 146 145 144 142 138 133 130 127 125 124 122 119 115 111 105 101 95 89 84 79 75 69 63 56 52 45 39 38 38 41 50 54 53 53 52
225 224 220 220 224 223 234 251 271 289 289 286 255 139 138 126 110 99 90 81 66 49 32 22 19 13 351 311 271 261 250 231 218 204 195 189 186 183 175 174 176 175 177 179 179 178 175 171 168 165 163 161 157 155 156 157 156 155 155 154 152 151 149 147 146 143 139 134 130 125 124 124 122 119 116 112 107 103 98 90 83 76 67 59 52 45 39 31 25 24 23 25 37 48 50 54 55
226 224 220 223 224 217 228 246 271 287 285 283 248 148 146 133 111 100 93 83 69 53 37 25 17 14 2 332 296 272 266 247 225 203 186 183 181 179 179 178 177 175 179 182 180 180 178 174 171 167 165 164 162 160 158 158 159 157 158 158 157 156 154 152 150 147 143 138 132 125 124 125 122 119 116 112 107 102 97 90 81 70 59 47 39 33 25 19 16 12 8 8 20 36 44 52 56
228 225 220 222 220 212 224 243 266 278 275 270 207 152 145 131 113 104 95 86 74 57 40 28 16 14 11 345 317 292 284 265 211 192 183 183 179 176 180 179 177 179 182 183 181 182 181 178 174 170 167 165 165 165 162 160 160 160 161 162 163 162 160 159 157 154 151 145 138 131 130 129 125 120 117 111 104 100 94 85 72 57 42 29 21 15 9 7 8 4 358 355 359 8 20 47 64
227 225 219 219 217 214 226 244 256 262 259 244 180 154 143 129 117 109 100 90 80 65 45 31 18 11 12 358 328 307 293 252 183 181 178 181 182 180 179 178 180 183 182 182 183 185 185 180 178 174 169 167 167 168 166 164 163 163 164 165 166 166 165 164 162 161 159 154 148 142 138 133 127 124 119 111 103 97 88 73 52 32 18 10 2 356 355 356 357 354 352 350 344 340 338 350 58
228 226 219 217 216 219 231 244 249 252 249 224 177 158 144 132 122 116 108 96 85 73 56 37 20 8 7 4 335 311 295 237 184 186 185 180 181 181 180 180 182 184 181 182 186 187 186 184 181 177 172 170 170 170 167 166 166 167 168 168 169 169 170 169 168 167 165 163 155 149 145 137 131 129 121 109 99 87 72 40 10 5 0 354 347 344 347 347 346 346 344 337 326 317 313 315 326
229 228 222 218 217 218 223 233 242 243 239 218 181 163 148 136 127 121 113 99 89 80 67 47 24 5 357 360 341 311 294 257 198 196 202 190 181 179 181 183 183 182 183 184 188 189 187 187 183 178 175 173 170 168 167 166 168 171 172 172 173 175 177 176 175 171 167 163 155 148 144 138 134 132 122 107 90 67 29 352 345 349 348 342 339 341 343 340 336 336 326 315 308 302 305 313 317
227 228 225 220 217 212 207 221 235 236 233 216 185 170 159 147 136 128 121 108 99 91 76 56 29 5 347 346 344 311 298 288 234 202 209 206 190 181 180 183 182 181 186 189 187 188 186 182 178 175 174 171 168 166 167 168 171 174 175 174 175 178 180 181 177 172 166 159 150 145 140 137 136 134 124 108 81 36 350 335 337 341 340 335 338 344 345 340 336 328 314 311 312 315 327 333 329
224 226 223 220 216 206 201 216 232 236 230 215 194 181 172 159 148 144 139 124 110 101 87 65 33 7 341 332 344 314 304 315 288 213 199 208 200 189 183 182 182 181 185 189 187 186 183 178 173 171 169 167 166 168 169 170 172 175 176 174 175 178 181 181 176 169 165 157 149 145 142 140 139 137 127 104 63 8 338 330 334 337 335 337 348 356 359 1 4 1 355 353 354 359 6 5 356
222 223 218 215 211 200 200 213 229 237 229 219 210 194 182 175 165 160 150 133 119 113 104 87 49 17 341 319 324 316 310 322 279 224 195 197 200 194 189 184 182 181 184 188 192 190 183 178 174 169 167 166 165 166 169 171 173 175 176 176 175 178 181 181 174 169 166 161 154 150 147 147 144 140 122 73 18 350 337 332 336 338 340 352 4 12 19 29 36 38 37 36 32 29 27 22 12
222 221 216 213 208 199 201 210 223 235 229 223 223 209 193 192 185 169 157 146 142 141 134 129 112 57 351 319 313 299 298 288 241 233 206 192 195 192 190 187 184 185 186 189 194 191 183 178 173 168 167 166 163 165 168 171 175 177 178 179 177 177 179 180 178 174 172 169 163 158 155 156 154 147 120 349 345 343 341 342 343 343 352 2 10 20 35 45 49 49 48 48 44 38 34 28 19
219 221 220 213 207 204 205 210 218 228 229 225 226 220 205 200 194 174 164 165 167 163 154 146 128 101 31 326 315 271 243 255 233 237 224 195 191 189 187 190 190 191 190 192 195 191 188 185 178 177 175 171 168 168 168 168 174 178 182 185 183 181 180 182 185 182 178 175 169 167 167 169 175 195 277 316 333 340 344 347 347 344 350 355 359 13 35 48 50 45 41 40 37 31 25 19 13
218 220 222 213 210 212 206 210 219 224 227 227 229 229 216 208 200 182 181 184 176 167 154 141 126 117 131 320 309 265 212 238 230 230 232 205 191 190 190 193 194 194 192 193 196 196 200 199 192 190 186 181 177 173 169 169 175 182 185 190 194 193 186 184 188 189 186 182 177 176 179 187 202 238 277 306 324 333 339 340 339 336 335 335 339 350 13 31 32 24 19 18 15 10 6 4 0
222 223 224 215 213 215 207 209 221 225 226 228 233 235 224 215 206 191 194 191 175 170 157 142 136 138 148 224 294 268 212 211 232 231 229 215 200 193 192 195 195 195 196 196 196 198 203 205 202 198 194 192 191 185 180 181 184 187 191 195 198 201 199 192 190 194 195 193 189 190 198 211 225 250 276 301 318 324 325 325 325 324 320 320 324 334 350 5 7 4 4 4 3 0 358 355 353
227 224 223 219 214 214 211 210 220 227 226 225 232 237 230 220 211 201 201 194 183 179 164 151 147 142 137 139 262 266 229 195 219 238 230 215 210 202 194 192 190 193 199 201 200 200 203 204 203 202 201 199 199 197 195 199 201 198 198 200 199 204 209 203 196 199 204 202 200 202 210 223 240 257 275 296 311 314 313 312 313 311 310 312 317 328 344 355 355 353 356 358 359 356 352 350 352
229 217 220 223 216 212 213 212 220 227 227 225 227 235 237 222 209 210 210 201 194 184 166 155 150 141 139 142 154 258 246 209 199 225 235 216 210 211 202 190 185 193 198 200 203 205 205 204 203 204 207 204 202 202 203 209 212 209 207 204 204 209 210 208 204 203 206 207 209 212 215 226 241 255 271 288 301 305 303 302 302 301 302 306 313 325 343 351 349 349 353 355 354 350 347 348 352
213 209 217 223 218 213 213 215 220 225 229 230 227 234 243 226 204 216 219 208 199 184 168 158 150 142 142 144 138 197 250 233 200 203 227 227 212 209 205 194 188 193 197 197 203 208 206 203 201 202 206 207 206 205 207 214 219 217 213 209 211 216 214 212 212 210 208 210 214 217 220 228 238 251 265 280 293 297 295 293 292 291 295 301 308 324 342 345 344 347 349 350 349 347 346 348 350
201 207 213 217 217 214 215 218 219 223 232 237 229 231 245 236 203 214 218 207 199 184 171 162 153 149 148 148 145 152 232 246 219 200 210 228 228 215 207 200 196 195 196 201 207 213 212 209 207 205 206 209 209 210 211 215 220 222 218 215 218 221 220 219 219 219 216 215 218 221 224 230 238 249 261 276 288 291 287 283 282 284 289 295 304 322 336 338 342 345 346 347 346 345 347 349 349
196 202 210 214 215 212 215 219 219 225 239 246 230 227 242 243 208 211 214 199 196 190 178 170 163 157 151 150 147 144 186 244 239 216 208 221 232 230 219 210 209 204 200 203 209 215 220 220 218 215 213 210 209 212 216 217 217 218 218 220 224 226 224 225 227 227 224 222 223 227 231 235 241 250 261 274 283 285 280 275 275 279 284 288 295 314 328 334 340 343 345 346 344 343 347 349 348
199 202 211 215 215 213 215 219 221 231 253 256 232 227 240 240 191 205 214 192 197 197 186 177 169 160 155 153 151 151 165 221 241 233 222 224 228 231 232 227 227 222 214 212 212 213 217 219 220 218 215 210 208 210 216 220 218 216 219 224 229 230 226 226 229 232 231 229 231 234 238 242 246 252 260 270 279 280 276 270 269 275 280 281 286 303 320 330 337 342 343 343 342 343 346 347 345
213 211 217 219 219 218 220 224 230 246 272 263 237 231 239 235 164 198 210 188 191 193 191 187 176 168 165 162 159 162 170 189 226 236 231 226 223 223 224 225 229 230 229 226 222 220 217 217 219 219 217 213 210 209 212 218 221 223 226 228 231 232 228 227 232 235 234 233 235 238 241 246 251 254 259 268 278 279 272 267 268 275 278 277 281 297 315 325 333 339 339 340 342 343 345 345 343
228 227 229 230 230 230 233 238 245 258 269 264 244 233 239 245 207 209 208 196 188 183 190 196 190 182 175 169 166 169 174 179 198 224 232 225 220 220 222 225 226 227 233 234 231 229 227 224 224 226 228 228 224 220 219 220 223 228 233 235 238 239 236 234 236 239 239 237 238 239 242 249 253 256 262 270 278 277 267 260 264 271 273 272 278 291 304 318 329 334 336 340 344 344 346 346 346
234 234 235 237 240 243 247 250 254 259 262 263 252 240 247 266 253 238 231 221 208 193 192 199 203 197 184 175 172 177 183 185 189 202 222 230 227 223 222 226 228 228 233 238 240 238 236 236 234 234 237 241 242 240 237 233 230 233 237 240 243 245 243 242 242 242 243 243 242 241 244 249 252 256 264 271 276 274 263 254 259 267 267 266 274 283 295 314 325 331 335 341 344 345 348 349 349
230 229 230 236 243 247 247 246 248 253 256 258 258 254 263 277 267 258 245 234 228 216 204 203 207 204 197 190 185 186 190 190 190 192 204 226 238 234 227 226 228 230 235 240 245 246 243 241 239 240 242 246 249 251 249 244 239 239 240 242 245 247 247 247 247 247 244 243 244 244 245 247 250 255 263 269 273 273 262 250 255 262 260 259 267 274 288 309 323 330 335 340 345 349 351 351 351
228 229 229 235 241 241 242 242 242 247 251 253 257 259 261 262 258 254 245 237 235 232 220 209 205 203 206 207 201 198 194 193 195 193 196 212 233 241 238 232 229 231 237 242 247 250 245 239 238 240 242 245 247 248 246 244 243 243 243 243 244 246 248 249 249 249 245 243 243 245 247 249 250 252 256 262 271 275 266 253 254 257 253 252 259 266 281 303 319 328 334 339 347 351 350 349 348
225 227 225 231 233 232 236 237 235 238 245 249 251 254 256 254 253 252 248 240 236 238 236 222 213 209 210 212 213 210 206 206 202 194 199 210 223 235 240 238 233 230 235 240 244 246 242 237 236 237 239 241 239 237 237 239 242 243 242 242 242 242 243 245 247 247 246 245 245 246 248 250 249 249 251 258 268 274 268 257 254 254 248 245 251 257 274 294 312 324 332 340 347 348 344 342 340
224 222 219 226 230 231 235 238 236 236 243 250 252 255 257 256 258 258 252 246 240 241 243 238 230 222 216 214 218 219 220 222 212 199 201 210 222 232 237 239 237 233 232 235 239 242 241 238 235 233 233 233 232 233 236 239 240 241 241 240 239 238 239 240 243 246 247 246 246 247 249 249 249 249 250 254 262 269 268 259 254 252 245 241 244 250 262 281 304 318 328 339 344 340 335 333 332
224 222 221 225 230 232 236 241 242 241 246 253 256 257 257 255 263 266 257 251 248 245 246 247 244 235 226 221 223 227 231 225 210 197 196 202 218 231 233 234 234 232 231 232 236 240 241 241 237 233 231 230 230 232 235 239 240 242 242 240 239 238 238 239 240 244 247 247 246 247 248 249 249 249 248 250 256 264 267 263 257 252 245 240 239 242 250 267 292 306 320 334 334 328 326 328 328
226 227 228 230 233 235 235 239 242 243 245 250 253 250 230 216 250 258 258 251 246 246 247 248 249 244 236 229 224 230 234 217 198 189 189 193 211 229 232 231 229 227 228 230 234 237 238 240 237 233 231 229 228 231 236 243 246 248 248 245 241 238 237 238 239 241 244 246 247 249 250 250 250 250 248 247 251 258 264 264 259 252 245 240 238 237 242 257 275 287 306 319 318 318 323 327 326
228 229 230 232 236 238 239 241 244 247 250 254 257 256 246 227 233 235 242 241 230 232 236 237 243 244 239 235 231 233 230 210 195 189 189 193 210 229 233 232 228 226 228 232 235 237 238 239 238 235 233 230 229 232 239 247 254 258 257 251 245 241 239 240 240 241 242 243 246 248 249 250 251 251 249 245 245 251 259 263 261 254 247 243 239 236 238 247 258 269 290 303 309 317 323 324 325